Back to catalog

STARLINK-30225

AliveCommunicationsVLEO
NORAD 57449·PAYLOAD·🇺🇸 United States

Launched Jul 24, 2023 from Cape Canaveral Space Force Station

Loading…

Next Passes (next 24 hours)

TLE

FreshSource: CelesTrak SupGP

Epoch: Sep 14, 2026, 14:40 UTC

1 57449C 23105V   26257.61159722  .00006555  00000+0  23733-3 0  2573
2 57449  43.0013 276.2058 0001712 273.0599 186.5564 15.27586630    17

Track STARLINK-30225 in real time with AllMySat

Download on the App Store